Regional Weather Roundup
Issued by NWS

Home | Current Version | Previous Version | Graphics & Text | Print | Product List | Glossary On
Versions: 1 2 3 4 5 6 7 8 9 10 11 12 13 14 15 16 17 18 19 20 21 22 23 24 25 26 27 28 29 30 31 32 33 34 35 36 37 38 39 40 41 42 43 44 45 46 47 48 49 50
000
ASUS45 KSLC 280010
RWRUT

UTAH REGIONAL WEATHER ROUNDUP
NATIONAL WEATHER SERVICE SALT LAKE CITY UT
600 PM MDT SUN JUL 27 2014

UTZ001>011-023>025-280100-

NORTHERN UTAH

CITY           SKY/WX    TMP DP  RH WIND       PRES   REMARKS
HILL AFB       SUNNY     96  32  10 N9        30.13F HX  91
LOGAN          SUNNY     97  31   9 NW7       30.10F HX  91
OGDEN          SUNNY     97  31   9 NW12      30.09F HX  91
PROVO AIRPORT  MOSUNNY   95  45  17 SE8       30.12F HX  91
SALT LAKE CITY MOSUNNY   98  35  11 VRB5      30.06F HX  93
VERNAL         MOSUNNY   90  41  18 SE7       30.18F
WENDOVER       MOSUNNY   97  37  12 SE6       30.08F HX  92
HEBER CITY     MOSUNNY   88  37  16 E5        30.20F
WEST JORDAN    SUNNY     99  54  22 NW6       30.11F HX  96

$$

UTZ012>022-026-027-280100-

SOUTHERN UTAH

CITY           SKY/WX    TMP DP  RH WIND       PRES   REMARKS
BRYCE CANYON   PTSUNNY   80  45  28 N14       30.36S
CEDAR CITY     CLOUDY    69  57  65 S8        30.23F
MILFORD        PTSUNNY   95  46  18 SW28G35   30.11R HX  91
MOAB/CYNLANDS  SUNNY     97  42  15 E8        30.05F HX  93
PRICE          CLOUDY    90  37  15 NW21G26   30.22S
ST GEORGE      PTCLDY    97  54  23 S18       30.00S HX  94
KANAB            N/A     82  54  36 S14       30.19R

$$

REGIONAL REPORTS     COLORADO/ARIZONA

CITY           SKY/WX    TMP DP  RH WIND       PRES   REMARKS
CRAIG, CO      MOSUNNY   80  38  22 VRB3      30.28F
GRAND JUNCTION CLOUDY    92  48  22 S28G35    30.12R
RIFLE          MOSUNNY   93  38  14 NW8       30.18F
MONTROSE       CLOUDY    79  53  40 N10       30.29R
CORTEZ         MOSUNNY   91  46  21 N12       30.20S
PAGE, AZ       MOSUNNY   94  49  21 SE5       30.06F HX  90
GRAND CANYON   MOSUNNY   83  50  31 NW10G17   30.28S THUNDER
KINGMAN        MOSUNNY   93  51  23 SW15G24   30.05F HX  90
FLAGSTAFF      MOSUNNY   75  49  39 N5        30.32R

$$

REGIONAL REPORTS    NEVADA/IDAHO/WYOMING

CITY           SKY/WX    TMP DP  RH WIND       PRES   REMARKS
LAS VEGAS, NV  PTSUNNY   93  53  25 SW14G20   29.92R HX  90
ELY            CLOUDY    80  46  30 N17       30.27R
ELKO           CLOUDY    91  35  13 E8        30.14S
POCATELLO, ID  MOSUNNY   96  31  10 N12       30.13F HX  90
BURLEY         MOSUNNY   96  42  15 N7        30.07F HX  92
EVANSTON, WY   MOSUNNY   86  26  11 E6        30.35F
ROCK SPRINGS   SUNNY     87  23   9 VRB6      30.33F

$$



USA.gov is the U.S. government's official web portal to all federal, state and local government web resources and services.